Time,TemperatureF,DewpointF,PressureIn,WindDirection,WindDirectionDegrees,WindSpeedMPH,WindSpeedGustMPH,Humidity,HourlyPrecipIn,Conditions,Clouds,dailyrainin,SoftwareType,DateUTC
2013-05-19 00:06:00,54.1,52.0,30.32,NNE,15,0.0,0.0,91,0.00,,,0.00,weatherlink.com 1.10,2013-05-19 04:06:00,
2013-05-19 00:21:00,54.4,52.0,30.32,NNE,15,0.0,0.0,91,0.00,,,0.00,weatherlink.com 1.10,2013-05-19 04:21:00,
2013-05-19 00:36:00,54.4,52.0,30.32,NNE,15,0.0,0.0,91,0.00,,,0.00,weatherlink.com 1.10,2013-05-19 04:36:00,
2013-05-19 00:51:00,54.4,52.0,30.32,NNE,15,0.0,0.0,91,0.00,,,0.00,weatherlink.com 1.10,2013-05-19 04:51:00,
2013-05-19 01:06:00,54.0,52.0,30.31,NNE,15,0.0,0.0,91,0.00,,,0.00,weatherlink.com 1.10,2013-05-19 05:06:00,
2013-05-19 01:21:00,53.7,51.0,30.31,NNE,15,0.0,0.0,91,0.00,,,0.00,weatherlink.com 1.10,2013-05-19 05:21:00,
2013-05-19 01:36:00,53.4,51.0,30.31,NNE,15,0.0,0.0,92,0.00,,,0.00,weatherlink.com 1.10,2013-05-19 05:36:00,
2013-05-19 01:52:00,53.1,51.0,30.30,NNE,15,0.0,0.0,92,0.00,,,0.00,weatherlink.com 1.10,2013-05-19 05:52:00,
2013-05-19 02:06:00,52.8,51.0,30.30,NNE,15,0.0,0.0,93,0.00,,,0.00,weatherlink.com 1.10,2013-05-19 06:06:00,
2013-05-19 02:21:00,52.6,51.0,30.30,NNE,14,0.0,0.0,93,0.00,,,0.00,weatherlink.com 1.10,2013-05-19 06:21:00,
2013-05-19 02:36:00,52.4,51.0,30.30,NNE,15,0.0,0.0,94,0.00,,,0.00,weatherlink.com 1.10,2013-05-19 06:36:00,
2013-05-19 02:51:00,52.5,51.0,30.30,NNE,15,0.0,0.0,95,0.00,,,0.00,weatherlink.com 1.10,2013-05-19 06:51:00,
2013-05-19 03:06:00,53.0,52.0,30.30,NNE,15,0.0,0.0,96,0.00,,,0.00,weatherlink.com 1.10,2013-05-19 07:06:00,
2013-05-19 03:21:00,53.6,52.0,30.30,NNE,15,0.0,0.0,95,0.00,,,0.00,weatherlink.com 1.10,2013-05-19 07:21:00,
2013-05-19 03:36:00,54.1,53.0,30.30,NNE,15,0.0,0.0,95,0.00,,,0.00,weatherlink.com 1.10,2013-05-19 07:36:00,
2013-05-19 03:51:00,54.5,53.0,30.30,NNE,14,0.0,0.0,94,0.00,,,0.00,weatherlink.com 1.10,2013-05-19 07:51:00,
2013-05-19 04:06:00,54.7,53.0,30.30,NNE,15,0.0,0.0,94,0.00,,,0.00,weatherlink.com 1.10,2013-05-19 08:06:00,
2013-05-19 04:21:00,54.9,53.0,30.30,NNE,15,0.0,0.0,94,0.00,,,0.00,weatherlink.com 1.10,2013-05-19 08:21:00,
2013-05-19 04:36:00,55.1,53.0,30.31,NNE,15,0.0,0.0,93,0.00,,,0.00,weatherlink.com 1.10,2013-05-19 08:36:00,
2013-05-19 04:51:00,55.3,53.0,30.30,NNE,15,0.0,0.0,93,0.00,,,0.00,weatherlink.com 1.10,2013-05-19 08:51:00,
2013-05-19 05:06:00,55.3,53.0,30.31,NNE,15,0.0,0.0,93,0.00,,,0.00,weatherlink.com 1.10,2013-05-19 09:06:00,
2013-05-19 05:21:00,55.3,53.0,30.31,NNE,15,0.0,0.0,93,0.00,,,0.00,weatherlink.com 1.10,2013-05-19 09:21:00,
2013-05-19 05:37:00,55.3,53.0,30.32,NNE,15,0.0,0.0,93,0.00,,,0.00,weatherlink.com 1.10,2013-05-19 09:37:00,
2013-05-19 05:52:00,55.1,54.0,30.32,NNE,15,0.0,0.0,94,0.00,,,0.00,weatherlink.com 1.10,2013-05-19 09:52:00,
2013-05-19 06:07:00,55.0,53.0,30.32,NNE,15,0.0,0.0,94,0.00,,,0.00,weatherlink.com 1.10,2013-05-19 10:07:00,
2013-05-19 06:22:00,55.0,54.0,30.32,NNE,15,0.0,0.0,95,0.00,,,0.00,weatherlink.com 1.10,2013-05-19 10:22:00,
2013-05-19 06:37:00,55.0,54.0,30.33,NNE,15,0.0,0.0,96,0.01,,,0.01,weatherlink.com 1.10,2013-05-19 10:37:00,
2013-05-19 06:52:00,55.1,54.0,30.33,NNE,15,0.0,0.0,96,0.01,,,0.01,weatherlink.com 1.10,2013-05-19 10:52:00,
2013-05-19 07:07:00,55.1,54.0,30.33,NNE,15,0.0,0.0,96,0.02,,,0.02,weatherlink.com 1.10,2013-05-19 11:07:00,
2013-05-19 07:22:00,55.2,54.0,30.33,NNE,15,0.0,0.0,97,0.03,,,0.03,weatherlink.com 1.10,2013-05-19 11:22:00,
2013-05-19 07:37:00,55.3,55.0,30.33,NNE,15,0.0,0.0,97,0.02,,,0.03,weatherlink.com 1.10,2013-05-19 11:37:00,
2013-05-19 07:52:00,55.3,55.0,30.34,NNE,15,0.0,0.0,97,0.03,,,0.04,weatherlink.com 1.10,2013-05-19 11:52:00,
2013-05-19 08:07:00,55.4,55.0,30.34,NNW,345,0.0,1.0,97,0.04,,,0.06,weatherlink.com 1.10,2013-05-19 12:07:00,
2013-05-19 08:22:00,55.3,55.0,30.34,NNW,345,0.0,1.0,97,0.03,,,0.06,weatherlink.com 1.10,2013-05-19 12:22:00,
2013-05-19 08:37:00,55.4,55.0,30.35,NNW,345,0.0,0.0,98,0.03,,,0.06,weatherlink.com 1.10,2013-05-19 12:37:00,
2013-05-19 08:52:00,55.6,55.0,30.35,NNW,345,0.0,0.0,98,0.02,,,0.06,weatherlink.com 1.10,2013-05-19 12:52:00,
2013-05-19 09:07:00,55.7,55.0,30.35,NNW,345,0.0,0.0,98,0.02,,,0.07,weatherlink.com 1.10,2013-05-19 13:07:00,
2013-05-19 09:22:00,55.9,55.0,30.35,NNW,344,0.0,0.0,98,0.02,,,0.08,weatherlink.com 1.10,2013-05-19 13:22:00,
2013-05-19 09:37:00,56.1,56.0,30.35,NNW,345,0.0,0.0,98,0.02,,,0.09,weatherlink.com 1.10,2013-05-19 13:37:00,
2013-05-19 09:52:00,56.3,56.0,30.35,NNW,345,0.0,1.0,98,0.03,,,0.09,weatherlink.com 1.10,2013-05-19 13:52:00,
2013-05-19 10:07:00,56.8,56.0,30.35,NE,37,0.0,1.0,98,0.02,,,0.09,weatherlink.com 1.10,2013-05-19 14:07:00,
2013-05-19 10:22:00,56.8,56.0,30.35,NE,37,0.0,1.0,98,0.02,,,0.10,weatherlink.com 1.10,2013-05-19 14:22:00,
2013-05-19 10:37:00,57.1,57.0,30.35,North,8,0.0,1.0,98,0.02,,,0.10,weatherlink.com 1.10,2013-05-19 14:37:00,
2013-05-19 10:52:00,57.2,57.0,30.35,North,6,0.0,1.0,98,0.02,,,0.11,weatherlink.com 1.10,2013-05-19 14:52:00,
2013-05-19 11:07:00,57.1,57.0,30.35,North,6,0.0,0.0,98,0.02,,,0.12,weatherlink.com 1.10,2013-05-19 15:07:00,
2013-05-19 11:22:00,57.1,57.0,30.35,North,6,0.0,1.0,98,0.02,,,0.13,weatherlink.com 1.10,2013-05-19 15:22:00,
2013-05-19 11:37:00,57.1,57.0,30.35,North,6,0.0,1.0,98,0.02,,,0.13,weatherlink.com 1.10,2013-05-19 15:37:00,
2013-05-19 11:52:00,57.2,57.0,30.35,North,6,0.0,0.0,98,0.02,,,0.13,weatherlink.com 1.10,2013-05-19 15:52:00,
2013-05-19 12:07:00,57.2,57.0,30.34,North,6,0.0,1.0,98,0.01,,,0.13,weatherlink.com 1.10,2013-05-19 16:07:00,
2013-05-19 12:22:00,57.2,57.0,30.34,North,6,0.0,0.0,98,0.01,,,0.13,weatherlink.com 1.10,2013-05-19 16:22:00,
2013-05-19 12:37:00,57.2,57.0,30.33,North,6,0.0,0.0,98,0.02,,,0.14,weatherlink.com 1.10,2013-05-19 16:37:00,
2013-05-19 12:52:00,57.3,57.0,30.32,North,8,0.0,0.0,98,0.02,,,0.15,weatherlink.com 1.10,2013-05-19 16:52:00,
2013-05-19 13:07:00,57.2,56.0,30.32,North,6,0.0,0.0,97,0.03,,,0.16,weatherlink.com 1.10,2013-05-19 17:07:00,
2013-05-19 13:22:00,57.3,57.0,30.32,North,6,0.0,0.0,98,0.03,,,0.17,weatherlink.com 1.10,2013-05-19 17:22:00,
2013-05-19 13:37:00,57.6,57.0,30.31,North,6,0.0,0.0,98,0.03,,,0.17,weatherlink.com 1.10,2013-05-19 17:37:00,
2013-05-19 13:52:00,57.5,57.0,30.31,North,6,0.0,0.0,98,0.02,,,0.18,weatherlink.com 1.10,2013-05-19 17:52:00,
2013-05-19 14:07:00,57.6,57.0,30.31,North,8,0.0,0.0,98,0.03,,,0.19,weatherlink.com 1.10,2013-05-19 18:07:00,
2013-05-19 14:22:00,57.7,57.0,30.30,North,8,0.0,0.0,98,0.02,,,0.19,weatherlink.com 1.10,2013-05-19 18:22:00,
2013-05-19 14:37:00,57.6,57.0,30.30,NNW,335,0.0,0.0,98,0.02,,,0.20,weatherlink.com 1.10,2013-05-19 18:37:00,
2013-05-19 14:52:00,57.7,57.0,30.29,NNW,336,0.0,0.0,98,0.02,,,0.20,weatherlink.com 1.10,2013-05-19 18:52:00,
2013-05-19 15:07:00,57.7,57.0,30.29,WNW,299,0.0,1.0,98,0.02,,,0.20,weatherlink.com 1.10,2013-05-19 19:07:00,
2013-05-19 15:22:00,57.8,57.0,30.29,SW,219,0.0,1.0,98,0.02,,,0.20,weatherlink.com 1.10,2013-05-19 19:22:00,
2013-05-19 15:37:00,57.8,57.0,30.28,NNW,330,0.0,0.0,98,0.02,,,0.21,weatherlink.com 1.10,2013-05-19 19:37:00,
2013-05-19 15:52:00,57.8,57.0,30.28,North,357,0.0,1.0,98,0.02,,,0.22,weatherlink.com 1.10,2013-05-19 19:52:00,
2013-05-19 16:07:00,57.7,57.0,30.28,ESE,105,0.0,0.0,98,0.02,,,0.22,weatherlink.com 1.10,2013-05-19 20:07:00,
2013-05-19 16:22:00,57.8,57.0,30.27,ESE,105,0.0,0.0,98,0.02,,,0.23,weatherlink.com 1.10,2013-05-19 20:22:00,
2013-05-19 16:37:00,57.8,57.0,30.27,ESE,105,0.0,0.0,98,0.02,,,0.23,weatherlink.com 1.10,2013-05-19 20:37:00,
2013-05-19 16:52:00,57.7,57.0,30.27,ESE,105,0.0,0.0,98,0.01,,,0.23,weatherlink.com 1.10,2013-05-19 20:52:00,
2013-05-19 17:07:00,57.8,57.0,30.27,ESE,105,0.0,0.0,98,0.01,,,0.23,weatherlink.com 1.10,2013-05-19 21:07:00,
2013-05-19 17:22:00,57.7,57.0,30.27,ESE,105,0.0,1.0,98,0.00,,,0.23,weatherlink.com 1.10,2013-05-19 21:22:00,
2013-05-19 17:37:00,57.6,57.0,30.27,ESE,106,0.0,0.0,98,0.00,,,0.23,weatherlink.com 1.10,2013-05-19 21:37:00,
2013-05-19 17:52:00,57.6,57.0,30.27,ESE,105,0.0,0.0,98,0.00,,,0.23,weatherlink.com 1.10,2013-05-19 21:52:00,
2013-05-19 18:07:00,57.6,57.0,30.26,ESE,106,0.0,0.0,98,0.00,,,0.23,weatherlink.com 1.10,2013-05-19 22:07:00,
2013-05-19 18:22:00,57.6,57.0,30.25,ESE,105,0.0,0.0,98,0.00,,,0.23,weatherlink.com 1.10,2013-05-19 22:22:00,
2013-05-19 18:37:00,57.5,57.0,30.26,ESE,105,0.0,0.0,98,0.00,,,0.23,weatherlink.com 1.10,2013-05-19 22:37:00,
2013-05-19 18:52:00,57.5,57.0,30.25,ESE,106,0.0,1.0,98,0.00,,,0.23,weatherlink.com 1.10,2013-05-19 22:52:00,
2013-05-19 19:07:00,57.3,57.0,30.25,ESE,105,0.0,0.0,98,0.00,,,0.23,weatherlink.com 1.10,2013-05-19 23:07:00,
2013-05-19 19:23:00,57.4,57.0,30.25,ESE,105,0.0,0.0,98,0.00,,,0.23,weatherlink.com 1.10,2013-05-19 23:23:00,
2013-05-19 19:38:00,57.4,57.0,30.25,ESE,104,0.0,0.0,98,0.00,,,0.23,weatherlink.com 1.10,2013-05-19 23:38:00,
2013-05-19 19:53:00,57.3,57.0,30.25,ESE,105,0.0,0.0,98,0.00,,,0.23,weatherlink.com 1.10,2013-05-19 23:53:00,
2013-05-19 20:08:00,57.3,57.0,30.25,ESE,105,0.0,0.0,98,0.00,,,0.23,weatherlink.com 1.10,2013-05-20 00:08:00,
2013-05-19 20:23:00,57.3,57.0,30.25,ESE,105,0.0,0.0,98,0.00,,,0.23,weatherlink.com 1.10,2013-05-20 00:23:00,
2013-05-19 20:38:00,57.1,57.0,30.25,ESE,107,0.0,1.0,98,0.00,,,0.23,weatherlink.com 1.10,2013-05-20 00:38:00,
2013-05-19 20:53:00,57.1,57.0,30.25,ESE,107,0.0,0.0,98,0.00,,,0.23,weatherlink.com 1.10,2013-05-20 00:53:00,
2013-05-19 21:08:00,57.0,57.0,30.25,ESE,107,0.0,0.0,98,0.00,,,0.23,weatherlink.com 1.10,2013-05-20 01:08:00,
2013-05-19 21:23:00,57.0,57.0,30.25,ESE,107,0.0,0.0,98,0.00,,,0.23,weatherlink.com 1.10,2013-05-20 01:23:00,
2013-05-19 21:38:00,57.0,57.0,30.25,ESE,108,0.0,0.0,98,0.00,,,0.23,weatherlink.com 1.10,2013-05-20 01:38:00,
2013-05-19 21:53:00,56.9,57.0,30.25,ESE,107,0.0,0.0,99,0.01,,,0.24,weatherlink.com 1.10,2013-05-20 01:53:00,
2013-05-19 22:08:00,56.9,57.0,30.25,ESE,107,0.0,0.0,99,0.01,,,0.24,weatherlink.com 1.10,2013-05-20 02:08:00,
2013-05-19 22:23:00,56.9,57.0,30.24,ESE,108,0.0,0.0,99,0.01,,,0.24,weatherlink.com 1.10,2013-05-20 02:23:00,
2013-05-19 22:38:00,56.8,57.0,30.23,ESE,107,0.0,0.0,99,0.01,,,0.24,weatherlink.com 1.10,2013-05-20 02:38:00,
2013-05-19 22:53:00,56.7,57.0,30.23,ESE,107,0.0,0.0,99,0.00,,,0.24,weatherlink.com 1.10,2013-05-20 02:53:00,
2013-05-19 23:08:00,56.8,57.0,30.22,ESE,107,0.0,0.0,99,0.00,,,0.24,weatherlink.com 1.10,2013-05-20 03:08:00,
2013-05-19 23:23:00,56.8,57.0,30.22,ESE,107,0.0,0.0,99,0.00,,,0.24,weatherlink.com 1.10,2013-05-20 03:23:00,
2013-05-19 23:38:00,56.8,57.0,30.21,ESE,107,0.0,0.0,99,0.00,,,0.24,weatherlink.com 1.10,2013-05-20 03:38:00,
2013-05-19 23:53:00,56.8,57.0,30.21,ESE,107,0.0,0.0,99,0.00,,,0.24,weatherlink.com 1.10,2013-05-20 03:53:00,